Time,TemperatureF,DewpointF,PressureIn,WindDirection,WindDirectionDegrees,WindSpeedMPH,WindSpeedGustMPH,Humidity,HourlyPrecipIn,Conditions,Clouds,dailyrainin,SoftwareType,DateUTC
2013-01-12 00:02:00,52.0,23.0,29.69,West,280,10.0,20.0,32,0.00,,,0.00,,2013-01-12 06:02:00,
2013-01-12 00:12:00,52.0,23.0,29.69,West,280,10.0,20.0,32,0.00,,,0.00,,2013-01-12 06:12:00,
2013-01-12 00:22:00,51.0,24.0,29.69,West,278,11.0,15.0,34,0.00,,,0.00,,2013-01-12 06:22:00,
2013-01-12 00:32:00,44.0,34.0,29.74,WNW,286,11.0,23.0,69,0.00,,,0.00,,2013-01-12 06:32:00,
2013-01-12 00:42:00,44.0,34.0,29.74,WNW,286,11.0,23.0,69,0.00,,,0.00,,2013-01-12 06:42:00,
2013-01-12 00:52:00,41.0,34.0,29.75,WNW,291,11.0,20.0,75,0.00,,,0.00,,2013-01-12 06:52:00,
2013-01-12 01:02:00,39.0,33.0,29.78,WNW,293,9.0,24.0,78,0.00,,,0.00,,2013-01-12 07:02:00,
2013-01-12 01:12:00,38.0,32.0,29.80,WNW,295,8.0,14.0,80,0.00,,,0.00,,2013-01-12 07:12:00,
2013-01-12 01:22:00,38.0,32.0,29.80,WNW,295,8.0,14.0,80,0.00,,,0.00,,2013-01-12 07:22:00,
2013-01-12 01:32:00,37.0,31.0,29.82,WNW,293,12.0,20.0,80,0.00,,,0.00,,2013-01-12 07:32:00,
2013-01-12 01:42:00,37.0,31.0,29.82,WNW,293,12.0,20.0,80,0.00,,,0.00,,2013-01-12 07:42:00,
2013-01-12 01:52:00,36.0,30.0,29.83,WNW,296,9.0,19.0,79,0.00,,,0.00,,2013-01-12 07:52:00,
2013-01-12 02:02:00,35.0,29.0,29.87,WNW,296,9.0,15.0,77,0.00,,,0.00,,2013-01-12 08:02:00,
2013-01-12 02:11:00,35.0,29.0,29.87,WNW,296,9.0,15.0,77,0.00,,,0.00,,2013-01-12 08:11:00,
2013-01-12 02:22:00,34.0,28.0,29.88,WNW,285,8.0,15.0,77,0.00,,,0.00,,2013-01-12 08:22:00,
2013-01-12 02:32:00,33.0,26.0,29.90,WNW,298,9.0,20.0,76,0.00,,,0.00,,2013-01-12 08:32:00,
2013-01-12 02:42:00,33.0,26.0,29.90,WNW,298,9.0,20.0,76,0.00,,,0.00,,2013-01-12 08:42:00,
2013-01-12 02:52:00,33.0,26.0,29.91,WNW,298,9.0,19.0,76,0.00,,,0.00,,2013-01-12 08:52:00,
2013-01-12 03:02:00,32.0,25.0,29.93,WNW,301,9.0,16.0,74,0.00,,,0.00,,2013-01-12 09:02:00,
2013-01-12 03:12:00,32.0,25.0,29.93,WNW,301,9.0,16.0,74,0.00,,,0.00,,2013-01-12 09:12:00,
2013-01-12 03:22:00,32.0,25.0,29.93,NW,307,5.0,19.0,74,0.00,,,0.00,,2013-01-12 09:22:00,
2013-01-12 03:32:00,30.0,22.0,29.93,WNW,296,7.0,23.0,73,0.00,,,0.00,,2013-01-12 09:32:00,
2013-01-12 03:42:00,30.0,22.0,29.93,WNW,296,7.0,23.0,73,0.00,,,0.00,,2013-01-12 09:42:00,
2013-01-12 03:52:00,30.0,22.0,29.95,WNW,289,10.0,16.0,72,0.00,,,0.00,,2013-01-12 09:52:00,
2013-01-12 04:02:00,29.0,20.0,29.96,WNW,302,6.0,14.0,68,0.00,,,0.00,,2013-01-12 10:02:00,
2013-01-12 04:12:00,29.0,20.0,29.96,WNW,302,6.0,14.0,68,0.00,,,0.00,,2013-01-12 10:12:00,
2013-01-12 04:22:00,29.0,20.0,29.97,West,281,4.0,10.0,69,0.00,,,0.00,,2013-01-12 10:22:00,
2013-01-12 04:32:00,28.0,20.0,29.96,NW,321,2.0,11.0,71,0.00,,,0.00,,2013-01-12 10:32:00,
2013-01-12 04:42:00,28.0,20.0,29.96,NW,321,2.0,11.0,71,0.00,,,0.00,,2013-01-12 10:42:00,
2013-01-12 04:52:00,28.0,19.0,29.98,WNW,295,6.0,13.0,69,0.00,,,0.00,,2013-01-12 10:52:00,
2013-01-12 05:02:00,27.0,19.0,29.98,WNW,296,6.0,11.0,70,0.00,,,0.00,,2013-01-12 11:02:00,
2013-01-12 05:12:00,27.0,19.0,29.98,WNW,300,4.0,10.0,71,0.00,,,0.00,,2013-01-12 11:12:00,
2013-01-12 05:22:00,27.0,19.0,29.98,WNW,300,4.0,10.0,71,0.00,,,0.00,,2013-01-12 11:22:00,
2013-01-12 05:32:00,27.0,19.0,30.00,WNW,289,4.0,8.0,72,0.00,,,0.00,,2013-01-12 11:32:00,
2013-01-12 05:42:00,27.0,19.0,30.00,WNW,289,4.0,8.0,72,0.00,,,0.00,,2013-01-12 11:42:00,
2013-01-12 05:52:00,27.0,19.0,30.01,WNW,296,4.0,10.0,72,0.00,,,0.00,,2013-01-12 11:52:00,
2013-01-12 06:02:00,26.0,19.0,30.01,WNW,295,3.0,5.0,73,0.00,,,0.00,,2013-01-12 12:02:00,
2013-01-12 06:12:00,26.0,19.0,30.01,WNW,295,3.0,5.0,73,0.00,,,0.00,,2013-01-12 12:12:00,
2013-01-12 06:22:00,26.0,18.0,30.01,WNW,289,7.0,14.0,71,0.00,,,0.00,,2013-01-12 12:22:00,
2013-01-12 06:32:00,26.0,17.0,30.01,WNW,294,4.0,12.0,69,0.00,,,0.00,,2013-01-12 12:32:00,
2013-01-12 06:42:00,26.0,17.0,30.01,WNW,294,4.0,12.0,69,0.00,,,0.00,,2013-01-12 12:42:00,
2013-01-12 06:52:00,26.0,18.0,30.01,NW,307,6.0,10.0,70,0.00,,,0.00,,2013-01-12 12:52:00,
2013-01-12 07:02:00,25.0,16.0,30.03,NW,321,2.0,6.0,69,0.00,,,0.00,,2013-01-12 13:02:00,
2013-01-12 07:12:00,25.0,16.0,30.03,NW,321,2.0,6.0,69,0.00,,,0.00,,2013-01-12 13:12:00,
2013-01-12 07:22:00,25.0,16.0,30.03,WNW,283,1.0,8.0,69,0.00,,,0.00,,2013-01-12 13:22:00,
2013-01-12 07:33:00,25.0,16.0,30.03,WNW,296,4.0,10.0,68,0.00,,,0.00,,2013-01-12 13:33:00,
2013-01-12 07:42:00,25.0,16.0,30.03,WNW,296,4.0,10.0,68,0.00,,,0.00,,2013-01-12 13:42:00,
2013-01-12 07:52:00,24.0,15.0,30.05,WNW,292,1.0,7.0,68,0.00,,,0.00,,2013-01-12 13:52:00,
2013-01-12 08:02:00,24.0,15.0,30.06,WNW,294,5.0,10.0,69,0.00,,,0.00,,2013-01-12 14:02:00,
2013-01-12 08:12:00,24.0,15.0,30.06,WNW,294,5.0,10.0,69,0.00,,,0.00,,2013-01-12 14:12:00,
2013-01-12 08:22:00,24.0,15.0,30.06,NW,306,3.0,10.0,68,0.00,,,0.00,,2013-01-12 14:22:00,
2013-01-12 08:33:00,24.0,14.0,30.08,WNW,293,7.0,10.0,66,0.00,,,0.00,,2013-01-12 14:33:00,
2013-01-12 08:43:00,24.0,14.0,30.08,WNW,293,7.0,10.0,66,0.00,,,0.00,,2013-01-12 14:43:00,
2013-01-12 08:53:00,24.0,14.0,30.06,WNW,298,7.0,12.0,65,0.00,,,0.00,,2013-01-12 14:53:00,
2013-01-12 09:03:00,24.0,14.0,30.09,WNW,292,4.0,11.0,64,0.00,,,0.00,,2013-01-12 15:03:00,
2013-01-12 09:12:00,25.0,14.0,30.08,WNW,294,4.0,9.0,63,0.00,,,0.00,,2013-01-12 15:12:00,
2013-01-12 09:22:00,25.0,14.0,30.08,WNW,294,4.0,9.0,63,0.00,,,0.00,,2013-01-12 15:22:00,
2013-01-12 09:33:00,25.0,12.0,30.08,WNW,296,8.0,13.0,58,0.00,,,0.00,,2013-01-12 15:33:00,
2013-01-12 09:42:00,25.0,12.0,30.08,WNW,296,8.0,13.0,58,0.00,,,0.00,,2013-01-12 15:42:00,
2013-01-12 09:52:00,25.0,12.0,30.10,NW,314,5.0,14.0,58,0.00,,,0.00,,2013-01-12 15:52:00,
2013-01-12 10:03:00,26.0,14.0,30.10,WNW,299,4.0,13.0,60,0.00,,,0.00,,2013-01-12 16:03:00,
2013-01-12 10:12:00,26.0,14.0,30.10,WNW,299,4.0,13.0,60,0.00,,,0.00,,2013-01-12 16:12:00,
2013-01-12 10:23:00,26.0,14.0,30.09,NW,313,5.0,9.0,61,0.00,,,0.00,,2013-01-12 16:23:00,
2013-01-12 10:33:00,27.0,15.0,30.10,WNW,298,6.0,10.0,59,0.00,,,0.00,,2013-01-12 16:33:00,
2013-01-12 10:42:00,26.0,14.0,30.11,WNW,290,5.0,12.0,59,0.00,,,0.00,,2013-01-12 16:42:00,
2013-01-12 10:52:00,26.0,14.0,30.11,WNW,290,5.0,12.0,59,0.00,,,0.00,,2013-01-12 16:52:00,
2013-01-12 11:02:00,26.0,14.0,30.11,NNW,344,5.0,8.0,60,0.00,,,0.00,,2013-01-12 17:02:00,
2013-01-12 11:12:00,27.0,15.0,30.11,NW,319,4.0,8.0,60,0.00,,,0.00,,2013-01-12 17:12:00,
2013-01-12 11:22:00,27.0,15.0,30.11,NW,319,4.0,8.0,60,0.00,,,0.00,,2013-01-12 17:22:00,
2013-01-12 11:33:00,27.0,14.0,30.10,NW,312,5.0,11.0,58,0.00,,,0.00,,2013-01-12 17:33:00,
2013-01-12 11:42:00,27.0,14.0,30.10,NW,312,5.0,11.0,58,0.00,,,0.00,,2013-01-12 17:42:00,
2013-01-12 11:53:00,27.0,16.0,30.10,WNW,294,3.0,8.0,62,0.00,,,0.00,,2013-01-12 17:53:00,
2013-01-12 12:03:00,27.0,15.0,30.09,WNW,289,6.0,12.0,60,0.00,,,0.00,,2013-01-12 18:03:00,
2013-01-12 12:12:00,27.0,15.0,30.09,WNW,289,6.0,12.0,60,0.00,,,0.00,,2013-01-12 18:12:00,
2013-01-12 12:22:00,26.0,15.0,30.08,NW,322,4.0,10.0,62,0.00,,,0.00,,2013-01-12 18:22:00,
2013-01-12 12:33:00,26.0,12.0,30.08,NW,326,6.0,12.0,56,0.00,,,0.00,,2013-01-12 18:33:00,
2013-01-12 12:42:00,26.0,12.0,30.08,NW,326,6.0,12.0,56,0.00,,,0.00,,2013-01-12 18:42:00,
2013-01-12 12:52:00,26.0,12.0,30.09,NW,307,5.0,12.0,56,0.00,,,0.00,,2013-01-12 18:52:00,
2013-01-12 13:03:00,26.0,12.0,30.08,NW,308,7.0,13.0,56,0.00,,,0.00,,2013-01-12 19:03:00,
2013-01-12 13:12:00,26.0,12.0,30.08,NW,308,7.0,13.0,56,0.00,,,0.00,,2013-01-12 19:12:00,
2013-01-12 13:23:00,26.0,12.0,30.09,WNW,301,5.0,15.0,56,0.00,,,0.00,,2013-01-12 19:23:00,
2013-01-12 13:33:00,26.0,12.0,30.08,North,349,8.0,13.0,55,0.00,,,0.00,,2013-01-12 19:33:00,
2013-01-12 13:42:00,26.0,12.0,30.08,North,349,8.0,13.0,55,0.00,,,0.00,,2013-01-12 19:42:00,
2013-01-12 13:53:00,25.0,12.0,30.09,NNW,327,4.0,11.0,56,0.00,,,0.00,,2013-01-12 19:53:00,
2013-01-12 14:02:00,25.0,12.0,30.10,WNW,303,3.0,8.0,57,0.00,,,0.00,,2013-01-12 20:02:00,
2013-01-12 14:12:00,25.0,13.0,30.08,NW,310,2.0,6.0,59,0.00,,,0.00,,2013-01-12 20:12:00,
2013-01-12 14:22:00,25.0,13.0,30.08,NW,310,2.0,6.0,59,0.00,,,0.00,,2013-01-12 20:22:00,
2013-01-12 14:32:00,25.0,12.0,30.10,NW,310,3.0,9.0,57,0.00,,,0.00,,2013-01-12 20:32:00,
2013-01-12 14:42:00,25.0,12.0,30.10,NW,310,3.0,9.0,57,0.00,,,0.00,,2013-01-12 20:42:00,
2013-01-12 14:53:00,25.0,13.0,30.10,WNW,292,7.0,10.0,59,0.00,,,0.00,,2013-01-12 20:53:00,
2013-01-12 15:02:00,24.0,12.0,30.11,WNW,292,6.0,10.0,60,0.00,,,0.00,,2013-01-12 21:02:00,
2013-01-12 15:12:00,24.0,12.0,30.10,WNW,303,4.0,8.0,59,0.00,,,0.00,,2013-01-12 21:12:00,
2013-01-12 15:22:00,24.0,12.0,30.10,WNW,303,4.0,8.0,59,0.00,,,0.00,,2013-01-12 21:22:00,
2013-01-12 15:33:00,24.0,11.0,30.08,NW,312,4.0,9.0,58,0.00,,,0.00,,2013-01-12 21:33:00,
2013-01-12 15:42:00,24.0,11.0,30.08,NW,312,4.0,9.0,58,0.00,,,0.00,,2013-01-12 21:42:00,
2013-01-12 15:53:00,24.0,12.0,30.11,NNW,336,4.0,7.0,59,0.00,,,0.00,,2013-01-12 21:53:00,
2013-01-12 16:02:00,24.0,12.0,30.13,WNW,303,4.0,9.0,60,0.00,,,0.00,,2013-01-12 22:02:00,
2013-01-12 16:12:00,24.0,12.0,30.13,WNW,303,4.0,9.0,60,0.00,,,0.00,,2013-01-12 22:12:00,
2013-01-12 16:22:00,23.0,11.0,30.10,NNW,332,4.0,9.0,59,0.00,,,0.00,,2013-01-12 22:22:00,
2013-01-12 16:32:00,23.0,10.0,30.11,NNW,327,4.0,8.0,58,0.00,,,0.00,,2013-01-12 22:32:00,
2013-01-12 16:43:00,23.0,10.0,30.10,North,2,2.0,8.0,58,0.00,,,0.00,,2013-01-12 22:43:00,
2013-01-12 16:53:00,23.0,10.0,30.10,North,2,2.0,8.0,58,0.00,,,0.00,,2013-01-12 22:53:00,
2013-01-12 17:02:00,23.0,11.0,30.10,NNW,340,4.0,12.0,59,0.00,,,0.00,,2013-01-12 23:02:00,
2013-01-12 17:12:00,23.0,11.0,30.11,NNW,336,3.0,7.0,60,0.00,,,0.00,,2013-01-12 23:12:00,
2013-01-12 17:22:00,23.0,11.0,30.11,NNW,336,3.0,7.0,60,0.00,,,0.00,,2013-01-12 23:22:00,
2013-01-12 17:33:00,23.0,11.0,30.13,NW,318,5.0,8.0,59,0.00,,,0.00,,2013-01-12 23:33:00,
2013-01-12 17:42:00,23.0,11.0,30.13,NW,318,5.0,8.0,59,0.00,,,0.00,,2013-01-12 23:42:00,
2013-01-12 17:53:00,23.0,11.0,30.16,NNW,328,2.0,7.0,59,0.00,,,0.00,,2013-01-12 23:53:00,
2013-01-12 18:03:00,23.0,11.0,30.16,NW,310,2.0,5.0,59,0.00,,,0.00,,2013-01-13 00:03:00,
2013-01-12 18:12:00,23.0,11.0,30.16,NW,310,2.0,5.0,59,0.00,,,0.00,,2013-01-13 00:12:00,
2013-01-12 18:22:00,24.0,12.0,30.16,NW,321,0.0,2.0,60,0.00,,,0.00,,2013-01-13 00:22:00,
2013-01-12 18:32:00,24.0,12.0,30.16,NW,321,0.0,1.0,59,0.00,,,0.00,,2013-01-13 00:32:00,
2013-01-12 18:42:00,24.0,12.0,30.16,NW,321,0.0,1.0,59,0.00,,,0.00,,2013-01-13 00:42:00,
2013-01-12 18:53:00,24.0,13.0,30.13,North,355,1.0,6.0,61,0.00,,,0.00,,2013-01-13 00:53:00,
2013-01-12 19:02:00,24.0,12.0,30.13,North,354,3.0,6.0,60,0.00,,,0.00,,2013-01-13 01:02:00,
2013-01-12 19:12:00,24.0,12.0,30.13,North,354,3.0,6.0,60,0.00,,,0.00,,2013-01-13 01:12:00,
2013-01-12 19:22:00,24.0,12.0,30.10,NW,316,5.0,14.0,60,0.00,,,0.00,,2013-01-13 01:22:00,
2013-01-12 19:32:00,24.0,13.0,30.11,NNW,338,5.0,9.0,61,0.00,,,0.00,,2013-01-13 01:32:00,
2013-01-12 19:42:00,24.0,13.0,30.11,NNW,338,5.0,9.0,61,0.00,,,0.00,,2013-01-13 01:42:00,
2013-01-12 19:53:00,23.0,11.0,30.13,NW,315,3.0,10.0,60,0.00,,,0.00,,2013-01-13 01:53:00,
2013-01-12 20:02:00,23.0,10.0,30.13,NW,313,6.0,14.0,58,0.00,,,0.00,,2013-01-13 02:02:00,
2013-01-12 20:12:00,23.0,10.0,30.13,NW,313,6.0,14.0,58,0.00,,,0.00,,2013-01-13 02:12:00,
2013-01-12 20:22:00,23.0,11.0,30.11,NW,315,3.0,10.0,60,0.00,,,0.00,,2013-01-13 02:22:00,
2013-01-12 20:32:00,23.0,11.0,30.13,NNW,341,6.0,13.0,59,0.00,,,0.00,,2013-01-13 02:32:00,
2013-01-12 20:42:00,23.0,11.0,30.13,NNW,341,6.0,13.0,59,0.00,,,0.00,,2013-01-13 02:42:00,
2013-01-12 20:53:00,23.0,11.0,30.11,WNW,301,6.0,15.0,60,0.00,,,0.00,,2013-01-13 02:53:00,
2013-01-12 21:02:00,23.0,11.0,30.13,NNW,346,6.0,14.0,60,0.00,,,0.00,,2013-01-13 03:02:00,
2013-01-12 21:12:00,23.0,11.0,30.13,NNW,346,6.0,14.0,60,0.00,,,0.00,,2013-01-13 03:12:00,
2013-01-12 21:22:00,22.0,11.0,30.13,NW,324,5.0,9.0,62,0.00,,,0.00,,2013-01-13 03:22:00,
2013-01-12 21:32:00,22.0,11.0,30.14,NW,305,6.0,13.0,61,0.00,,,0.00,,2013-01-13 03:32:00,
2013-01-12 21:42:00,22.0,11.0,30.14,NW,305,6.0,13.0,61,0.00,,,0.00,,2013-01-13 03:42:00,
2013-01-12 21:53:00,22.0,11.0,30.13,NNW,336,5.0,12.0,62,0.00,,,0.00,,2013-01-13 03:53:00,
2013-01-12 22:02:00,22.0,11.0,30.11,NW,308,4.0,9.0,63,0.00,,,0.00,,2013-01-13 04:02:00,
2013-01-12 22:12:00,22.0,11.0,30.11,NW,308,4.0,9.0,63,0.00,,,0.00,,2013-01-13 04:12:00,
2013-01-12 22:22:00,21.0,11.0,30.14,NW,322,4.0,11.0,64,0.00,,,0.00,,2013-01-13 04:22:00,
2013-01-12 22:32:00,21.0,11.0,30.11,North,359,4.0,9.0,65,0.00,,,0.00,,2013-01-13 04:32:00,
2013-01-12 22:42:00,21.0,11.0,30.11,North,359,4.0,9.0,65,0.00,,,0.00,,2013-01-13 04:42:00,
2013-01-12 22:53:00,21.0,11.0,30.14,NNW,342,5.0,8.0,66,0.00,,,0.00,,2013-01-13 04:53:00,
2013-01-12 23:03:00,20.0,11.0,30.11,NNW,341,7.0,9.0,67,0.00,,,0.00,,2013-01-13 05:03:00,
2013-01-12 23:12:00,20.0,11.0,30.11,NNW,341,7.0,9.0,67,0.00,,,0.00,,2013-01-13 05:12:00,
2013-01-12 23:22:00,19.0,10.0,30.14,NW,325,5.0,9.0,67,0.00,,,0.00,,2013-01-13 05:22:00,
2013-01-12 23:32:00,19.0,10.0,30.14,NNW,327,5.0,14.0,67,0.00,,,0.00,,2013-01-13 05:32:00,
2013-01-12 23:42:00,19.0,10.0,30.14,NNW,327,5.0,14.0,67,0.00,,,0.00,,2013-01-13 05:42:00,
2013-01-12 23:53:00,18.0,9.0,30.14,NW,326,4.0,8.0,67,0.00,,,0.00,,2013-01-13 05:53:00,